owner,sensor,date,latitude,longitude,sea_surface_height_above_sea_level,qcFlag 
COMPS,ioos:station:USF.COMPS:TAR:1,2013-08-16T12:00:00Z,28.1560,-82.7580,0.041,1111122 
COMPS,ioos:station:USF.COMPS:TAR:1,2013-08-16T12:06:00Z,28.1560,-82.7580,0.042,1111122 
COMPS,ioos:station:USF.COMPS:TAR:1,2013-08-16T12:12:00Z,28.1560,-82.7580,0.043,1111122 
COMPS,ioos:station:USF.COMPS:TAR:1,2013-08-16T12:18:00Z,28.1560,-82.7580,0.044,1111122 
COMPS,ioos:station:USF.COMPS:TAR:1,2013-08-16T12:24:00Z,28.1560,-82.7580,0.045,1111122 
COMPS,ioos:station:USF.COMPS:TAR:1,2013-08-16T12:30:00Z,28.1560,-82.7580,0.046,1111122 
COMPS,ioos:station:USF.COMPS:TAR:1,2013-08-16T12:36:00Z,28.1560,-82.7580,0.046,1111122 
COMPS,ioos:station:USF.COMPS:TAR:1,2013-08-16T12:42:00Z,28.1560,-82.7580,0.047,1111122 
COMPS,ioos:station:USF.COMPS:TAR:1,2013-08-16T12:48:00Z,28.1560,-82.7580,0.048,1111122 
COMPS,ioos:station:USF.COMPS:TAR:1,2013-08-16T12:54:00Z,28.1560,-82.7580,0.049,1111122 
COMPS,ioos:station:USF.COMPS:TAR:1,2013-08-16T17:00:00Z,28.1560,-82.7580,0.073,1111122 
COMPS,ioos:station:USF.COMPS:TAR:1,2013-08-16T17:06:00Z,28.1560,-82.7580,0.073,1111122 
COMPS,ioos:station:USF.COMPS:TAR:1,2013-08-16T17:12:00Z,28.1560,-82.7580,0.073,1111122 
COMPS,ioos:station:USF.COMPS:TAR:1,2013-08-16T17:18:00Z,28.1560,-82.7580,0.073,1111122 
COMPS,ioos:station:USF.COMPS:TAR:1,2013-08-16T17:24:00Z,28.1560,-82.7580,0.073,1111122 
COMPS,ioos:station:USF.COMPS:TAR:1,2013-08-16T17:30:00Z,28.1560,-82.7580,0.074,1111122 
COMPS,ioos:station:USF.COMPS:TAR:1,2013-08-16T17:36:00Z,28.1560,-82.7580,0.074,1111122 
COMPS,ioos:station:USF.COMPS:TAR:1,2013-08-16T17:42:00Z,28.1560,-82.7580,0.074,1111122 
COMPS,ioos:station:USF.COMPS:TAR:1,2013-08-16T17:48:00Z,28.1560,-82.7580,0.074,1111122 
COMPS,ioos:station:USF.COMPS:TAR:1,2013-08-16T17:54:00Z,28.1560,-82.7580,0.074,1111122 
COMPS,ioos:station:USF.COMPS:TAR:1,2013-08-16T18:00:00Z,28.1560,-82.7580,0.073,1111122 
COMPS,ioos:station:USF.COMPS:TAR:1,2013-08-16T18:06:00Z,28.1560,-82.7580,0.075,1111122 
COMPS,ioos:station:USF.COMPS:TAR:1,2013-08-16T18:12:00Z,28.1560,-82.7580,0.075,1111122 
COMPS,ioos:station:USF.COMPS:TAR:1,2013-08-16T18:18:00Z,28.1560,-82.7580,0.075,1111122 
COMPS,ioos:station:USF.COMPS:TAR:1,2013-08-16T18:24:00Z,28.1560,-82.7580,0.075,1111122 
COMPS,ioos:station:USF.COMPS:TAR:1,2013-08-16T18:30:00Z,28.1560,-82.7580,0.076,1111122 
COMPS,ioos:station:USF.COMPS:TAR:1,2013-08-16T18:36:00Z,28.1560,-82.7580,0.075,1111122 
COMPS,ioos:station:USF.COMPS:TAR:1,2013-08-16T18:42:00Z,28.1560,-82.7580,0.073,1111122 
COMPS,ioos:station:USF.COMPS:TAR:1,2013-08-16T18:48:00Z,28.1560,-82.7580,0.073,1111122 
COMPS,ioos:station:USF.COMPS:TAR:1,2013-08-16T18:54:00Z,28.1560,-82.7580,0.072,1111122 
COMPS,ioos:station:USF.COMPS:TAR:1,2013-08-16T19:00:00Z,28.1560,-82.7580,0.071,1111122 
COMPS,ioos:station:USF.COMPS:TAR:1,2013-08-16T19:06:00Z,28.1560,-82.7580,0.07,1111122 
COMPS,ioos:station:USF.COMPS:TAR:1,2013-08-16T19:12:00Z,28.1560,-82.7580,0.07,1111122 
COMPS,ioos:station:USF.COMPS:TAR:1,2013-08-16T19:18:00Z,28.1560,-82.7580,0.069,1111122 
COMPS,ioos:station:USF.COMPS:TAR:1,2013-08-16T19:24:00Z,28.1560,-82.7580,0.068,1111122 
COMPS,ioos:station:USF.COMPS:TAR:1,2013-08-16T19:30:00Z,28.1560,-82.7580,0.067,1111122 
COMPS,ioos:station:USF.COMPS:TAR:1,2013-08-16T19:36:00Z,28.1560,-82.7580,0.065,1111122 
COMPS,ioos:station:USF.COMPS:TAR:1,2013-08-16T19:42:00Z,28.1560,-82.7580,0.064,1111122 
COMPS,ioos:station:USF.COMPS:TAR:1,2013-08-16T19:48:00Z,28.1560,-82.7580,0.063,1111122 
COMPS,ioos:station:USF.COMPS:TAR:1,2013-08-16T19:54:00Z,28.1560,-82.7580,0.062,1111122 
COMPS,ioos:station:USF.COMPS:TAR:1,2013-08-16T20:00:00Z,28.1560,-82.7580,0.061,1111122 
COMPS,ioos:station:USF.COMPS:TAR:1,2013-08-16T20:06:00Z,28.1560,-82.7580,0.06,1111122 
COMPS,ioos:station:USF.COMPS:TAR:1,2013-08-16T20:12:00Z,28.1560,-82.7580,0.058,1111122 
COMPS,ioos:station:USF.COMPS:TAR:1,2013-08-16T20:18:00Z,28.1560,-82.7580,0.057,1111122 
COMPS,ioos:station:USF.COMPS:TAR:1,2013-08-16T20:24:00Z,28.1560,-82.7580,0.056,1111122 
COMPS,ioos:station:USF.COMPS:TAR:1,2013-08-16T20:30:00Z,28.1560,-82.7580,0.056,1111122 
COMPS,ioos:station:USF.COMPS:TAR:1,2013-08-16T20:36:00Z,28.1560,-82.7580,0.056,1111122 
COMPS,ioos:station:USF.COMPS:TAR:1,2013-08-16T20:42:00Z,28.1560,-82.7580,0.055,1111122 
COMPS,ioos:station:USF.COMPS:TAR:1,2013-08-16T20:48:00Z,28.1560,-82.7580,0.053,1111122 
COMPS,ioos:station:USF.COMPS:TAR:1,2013-08-16T20:54:00Z,28.1560,-82.7580,0.05,1111122 
COMPS,ioos:station:USF.COMPS:TAR:1,2013-08-16T21:00:00Z,28.1560,-82.7580,0.05,1111122 
COMPS,ioos:station:USF.COMPS:TAR:1,2013-08-16T21:06:00Z,28.1560,-82.7580,0.049,1111122 
COMPS,ioos:station:USF.COMPS:TAR:1,2013-08-16T21:12:00Z,28.1560,-82.7580,0.047,1111122 
COMPS,ioos:station:USF.COMPS:TAR:1,2013-08-16T21:18:00Z,28.1560,-82.7580,0.046,1111122 
COMPS,ioos:station:USF.COMPS:TAR:1,2013-08-16T21:24:00Z,28.1560,-82.7580,0.044,1111122 
COMPS,ioos:station:USF.COMPS:TAR:1,2013-08-16T21:30:00Z,28.1560,-82.7580,0.042,1111122 
COMPS,ioos:station:USF.COMPS:TAR:1,2013-08-16T21:36:00Z,28.1560,-82.7580,0.042,1111122 
COMPS,ioos:station:USF.COMPS:TAR:1,2013-08-16T21:42:00Z,28.1560,-82.7580,0.041,1111122 
COMPS,ioos:station:USF.COMPS:TAR:1,2013-08-16T21:48:00Z,28.1560,-82.7580,0.039,1111122 
COMPS,ioos:station:USF.COMPS:TAR:1,2013-08-16T21:54:00Z,28.1560,-82.7580,0.038,1111122 
COMPS,ioos:station:USF.COMPS:TAR:1,2013-08-16T22:00:00Z,28.1560,-82.7580,0.036,1111122 
COMPS,ioos:station:USF.COMPS:TAR:1,2013-08-16T22:06:00Z,28.1560,-82.7580,0.035,1111122 
COMPS,ioos:station:USF.COMPS:TAR:1,2013-08-16T22:12:00Z,28.1560,-82.7580,0.033,1111122 
COMPS,ioos:station:USF.COMPS:TAR:1,2013-08-16T22:18:00Z,28.1560,-82.7580,0.032,1111122 
COMPS,ioos:station:USF.COMPS:TAR:1,2013-08-16T22:24:00Z,28.1560,-82.7580,0.031,1111122 
COMPS,ioos:station:USF.COMPS:TAR:1,2013-08-16T22:30:00Z,28.1560,-82.7580,0.029,1111122 
COMPS,ioos:station:USF.COMPS:TAR:1,2013-08-16T22:36:00Z,28.1560,-82.7580,0.028,1111122 
COMPS,ioos:station:USF.COMPS:TAR:1,2013-08-16T22:42:00Z,28.1560,-82.7580,0.027,1111122 
COMPS,ioos:station:USF.COMPS:TAR:1,2013-08-16T22:48:00Z,28.1560,-82.7580,0.026,1111122 
COMPS,ioos:station:USF.COMPS:TAR:1,2013-08-16T22:54:00Z,28.1560,-82.7580,0.026,1111122 
COMPS,ioos:station:USF.COMPS:TAR:1,2013-08-16T23:00:00Z,28.1560,-82.7580,0.025,1111122 
COMPS,ioos:station:USF.COMPS:TAR:1,2013-08-16T23:06:00Z,28.1560,-82.7580,0.024,1111122 
COMPS,ioos:station:USF.COMPS:TAR:1,2013-08-16T23:12:00Z,28.1560,-82.7580,0.024,1111122 
COMPS,ioos:station:USF.COMPS:TAR:1,2013-08-16T23:18:00Z,28.1560,-82.7580,0.023,1111122 
COMPS,ioos:station:USF.COMPS:TAR:1,2013-08-16T23:24:00Z,28.1560,-82.7580,0.022,1111122 
COMPS,ioos:station:USF.COMPS:TAR:1,2013-08-16T23:30:00Z,28.1560,-82.7580,0.022,1111122 
COMPS,ioos:station:USF.COMPS:TAR:1,2013-08-16T23:36:00Z,28.1560,-82.7580,0.021,1111122 
COMPS,ioos:station:USF.COMPS:TAR:1,2013-08-16T23:42:00Z,28.1560,-82.7580,0.021,1111122 
COMPS,ioos:station:USF.COMPS:TAR:1,2013-08-16T23:48:00Z,28.1560,-82.7580,0.021,1111122 
COMPS,ioos:station:USF.COMPS:TAR:1,2013-08-16T23:54:00Z,28.1560,-82.7580,0.02,1111122 
COMPS,ioos:station:USF.COMPS:TAR:1,2013-08-17T00:00:00Z,28.1560,-82.7580,0.02,1111122 
COMPS,ioos:station:USF.COMPS:TAR:1,2013-08-17T00:06:00Z,28.1560,-82.7580,0.02,1111122 
COMPS,ioos:station:USF.COMPS:TAR:1,2013-08-17T00:12:00Z,28.1560,-82.7580,0.02,1111122 
COMPS,ioos:station:USF.COMPS:TAR:1,2013-08-17T00:18:00Z,28.1560,-82.7580,0.02,1111122 
COMPS,ioos:station:USF.COMPS:TAR:1,2013-08-17T00:24:00Z,28.1560,-82.7580,0.02,1111122 
COMPS,ioos:station:USF.COMPS:TAR:1,2013-08-17T00:30:00Z,28.1560,-82.7580,0.02,1111122 
COMPS,ioos:station:USF.COMPS:TAR:1,2013-08-17T00:36:00Z,28.1560,-82.7580,0.02,1111122 
COMPS,ioos:station:USF.COMPS:TAR:1,2013-08-17T00:42:00Z,28.1560,-82.7580,0.02,1111122 
COMPS,ioos:station:USF.COMPS:TAR:1,2013-08-17T00:48:00Z,28.1560,-82.7580,0.021,1111122 
COMPS,ioos:station:USF.COMPS:TAR:1,2013-08-17T00:54:00Z,28.1560,-82.7580,0.021,1111122 
COMPS,ioos:station:USF.COMPS:TAR:1,2013-08-17T01:00:00Z,28.1560,-82.7580,0.021,1111122 
COMPS,ioos:station:USF.COMPS:TAR:1,2013-08-17T01:06:00Z,28.1560,-82.7580,0.021,1111122 
COMPS,ioos:station:USF.COMPS:TAR:1,2013-08-17T01:12:00Z,28.1560,-82.7580,0.022,1111122 
COMPS,ioos:station:USF.COMPS:TAR:1,2013-08-17T01:18:00Z,28.1560,-82.7580,0.022,1111122 
COMPS,ioos:station:USF.COMPS:TAR:1,2013-08-17T01:24:00Z,28.1560,-82.7580,0.022,1111122 
COMPS,ioos:station:USF.COMPS:TAR:1,2013-08-17T01:30:00Z,28.1560,-82.7580,0.022,1111122 
COMPS,ioos:station:USF.COMPS:TAR:1,2013-08-17T01:36:00Z,28.1560,-82.7580,0.022,1111122 
COMPS,ioos:station:USF.COMPS:TAR:1,2013-08-17T01:42:00Z,28.1560,-82.7580,0.023,1111122 
COMPS,ioos:station:USF.COMPS:TAR:1,2013-08-17T01:48:00Z,28.1560,-82.7580,0.023,1111122 
COMPS,ioos:station:USF.COMPS:TAR:1,2013-08-17T01:54:00Z,28.1560,-82.7580,0.023,1111122 
COMPS,ioos:station:USF.COMPS:TAR:1,2013-08-17T02:00:00Z,28.1560,-82.7580,0.024,1111122 
COMPS,ioos:station:USF.COMPS:TAR:1,2013-08-17T02:06:00Z,28.1560,-82.7580,0.024,1111122 
COMPS,ioos:station:USF.COMPS:TAR:1,2013-08-17T02:12:00Z,28.1560,-82.7580,0.024,1111122 
COMPS,ioos:station:USF.COMPS:TAR:1,2013-08-17T02:18:00Z,28.1560,-82.7580,0.025,1111122 
COMPS,ioos:station:USF.COMPS:TAR:1,2013-08-17T02:24:00Z,28.1560,-82.7580,0.025,1111122 
COMPS,ioos:station:USF.COMPS:TAR:1,2013-08-17T02:30:00Z,28.1560,-82.7580,0.025,1111122 
COMPS,ioos:station:USF.COMPS:TAR:1,2013-08-17T02:36:00Z,28.1560,-82.7580,0.026,1111122 
COMPS,ioos:station:USF.COMPS:TAR:1,2013-08-17T02:42:00Z,28.1560,-82.7580,0.026,1111122 
COMPS,ioos:station:USF.COMPS:TAR:1,2013-08-17T02:48:00Z,28.1560,-82.7580,0.026,1111122 
COMPS,ioos:station:USF.COMPS:TAR:1,2013-08-17T02:54:00Z,28.1560,-82.7580,0.027,1111122 
COMPS,ioos:station:USF.COMPS:TAR:1,2013-08-17T03:00:00Z,28.1560,-82.7580,0.027,1111122 
COMPS,ioos:station:USF.COMPS:TAR:1,2013-08-17T03:06:00Z,28.1560,-82.7580,0.028,1111122 
COMPS,ioos:station:USF.COMPS:TAR:1,2013-08-17T03:12:00Z,28.1560,-82.7580,0.028,1111122 
COMPS,ioos:station:USF.COMPS:TAR:1,2013-08-17T03:18:00Z,28.1560,-82.7580,0.028,1111122 
COMPS,ioos:station:USF.COMPS:TAR:1,2013-08-17T03:24:00Z,28.1560,-82.7580,0.029,1111122 
COMPS,ioos:station:USF.COMPS:TAR:1,2013-08-17T03:30:00Z,28.1560,-82.7580,0.029,1111122 
COMPS,ioos:station:USF.COMPS:TAR:1,2013-08-17T03:36:00Z,28.1560,-82.7580,0.029,1111122 
COMPS,ioos:station:USF.COMPS:TAR:1,2013-08-17T03:42:00Z,28.1560,-82.7580,0.03,1111122 
COMPS,ioos:station:USF.COMPS:TAR:1,2013-08-17T03:48:00Z,28.1560,-82.7580,0.03,1111122 
COMPS,ioos:station:USF.COMPS:TAR:1,2013-08-17T03:54:00Z,28.1560,-82.7580,0.03,1111122 
COMPS,ioos:station:USF.COMPS:TAR:1,2013-08-17T04:00:00Z,28.1560,-82.7580,0.031,1111122 
COMPS,ioos:station:USF.COMPS:TAR:1,2013-08-17T04:06:00Z,28.1560,-82.7580,0.031,1111122 
COMPS,ioos:station:USF.COMPS:TAR:1,2013-08-17T04:12:00Z,28.1560,-82.7580,0.031,1111122 
COMPS,ioos:station:USF.COMPS:TAR:1,2013-08-17T04:18:00Z,28.1560,-82.7580,0.031,1111122 
COMPS,ioos:station:USF.COMPS:TAR:1,2013-08-17T04:24:00Z,28.1560,-82.7580,0.031,1111122 
COMPS,ioos:station:USF.COMPS:TAR:1,2013-08-17T04:30:00Z,28.1560,-82.7580,0.031,1111122 
COMPS,ioos:station:USF.COMPS:TAR:1,2013-08-17T04:36:00Z,28.1560,-82.7580,0.031,1111122 
COMPS,ioos:station:USF.COMPS:TAR:1,2013-08-17T04:42:00Z,28.1560,-82.7580,0.031,1111122 
COMPS,ioos:station:USF.COMPS:TAR:1,2013-08-17T04:48:00Z,28.1560,-82.7580,0.036,1111122 
COMPS,ioos:station:USF.COMPS:TAR:1,2013-08-17T04:54:00Z,28.1560,-82.7580,0.037,1111122 
COMPS,ioos:station:USF.COMPS:TAR:1,2013-08-17T05:00:00Z,28.1560,-82.7580,0.041,1111122 
COMPS,ioos:station:USF.COMPS:TAR:1,2013-08-17T05:06:00Z,28.1560,-82.7580,0.035,1111122 
COMPS,ioos:station:USF.COMPS:TAR:1,2013-08-17T05:12:00Z,28.1560,-82.7580,0.032,1111122 
COMPS,ioos:station:USF.COMPS:TAR:1,2013-08-17T05:18:00Z,28.1560,-82.7580,0.032,1111122 
COMPS,ioos:station:USF.COMPS:TAR:1,2013-08-17T05:24:00Z,28.1560,-82.7580,0.031,1111122 
COMPS,ioos:station:USF.COMPS:TAR:1,2013-08-17T05:30:00Z,28.1560,-82.7580,0.03,1111122 
COMPS,ioos:station:USF.COMPS:TAR:1,2013-08-17T05:36:00Z,28.1560,-82.7580,0.03,1111122 
COMPS,ioos:station:USF.COMPS:TAR:1,2013-08-17T05:42:00Z,28.1560,-82.7580,0.029,1111122 
COMPS,ioos:station:USF.COMPS:TAR:1,2013-08-17T05:48:00Z,28.1560,-82.7580,0.031,1111122 
COMPS,ioos:station:USF.COMPS:TAR:1,2013-08-17T05:54:00Z,28.1560,-82.7580,0.031,1111122 
COMPS,ioos:station:USF.COMPS:TAR:1,2013-08-17T06:00:00Z,28.1560,-82.7580,0.031,1111122 
COMPS,ioos:station:USF.COMPS:TAR:1,2013-08-17T06:06:00Z,28.1560,-82.7580,0.031,1111122 
COMPS,ioos:station:USF.COMPS:TAR:1,2013-08-17T06:12:00Z,28.1560,-82.7580,0.03,1111122 
COMPS,ioos:station:USF.COMPS:TAR:1,2013-08-17T06:18:00Z,28.1560,-82.7580,0.03,1111122 
COMPS,ioos:station:USF.COMPS:TAR:1,2013-08-17T06:24:00Z,28.1560,-82.7580,0.031,1111122 
COMPS,ioos:station:USF.COMPS:TAR:1,2013-08-17T06:30:00Z,28.1560,-82.7580,0.032,1111122 
COMPS,ioos:station:USF.COMPS:TAR:1,2013-08-17T06:36:00Z,28.1560,-82.7580,0.031,1111122 
COMPS,ioos:station:USF.COMPS:TAR:1,2013-08-17T06:42:00Z,28.1560,-82.7580,0.031,1111122 
COMPS,ioos:station:USF.COMPS:TAR:1,2013-08-17T06:48:00Z,28.1560,-82.7580,0.03,1111122 
COMPS,ioos:station:USF.COMPS:TAR:1,2013-08-17T06:54:00Z,28.1560,-82.7580,0.03,1111122 
COMPS,ioos:station:USF.COMPS:TAR:1,2013-08-17T07:00:00Z,28.1560,-82.7580,0.03,1111122 
COMPS,ioos:station:USF.COMPS:TAR:1,2013-08-17T07:06:00Z,28.1560,-82.7580,0.029,1111122 
COMPS,ioos:station:USF.COMPS:TAR:1,2013-08-17T07:12:00Z,28.1560,-82.7580,0.029,1111122 
COMPS,ioos:station:USF.COMPS:TAR:1,2013-08-17T07:18:00Z,28.1560,-82.7580,0.029,1111122 
COMPS,ioos:station:USF.COMPS:TAR:1,2013-08-17T07:24:00Z,28.1560,-82.7580,0.029,1111122 
COMPS,ioos:station:USF.COMPS:TAR:1,2013-08-17T07:30:00Z,28.1560,-82.7580,0.029,1111122 
COMPS,ioos:station:USF.COMPS:TAR:1,2013-08-17T07:36:00Z,28.1560,-82.7580,0.03,1111122 
COMPS,ioos:station:USF.COMPS:TAR:1,2013-08-17T07:42:00Z,28.1560,-82.7580,0.03,1111122 
COMPS,ioos:station:USF.COMPS:TAR:1,2013-08-17T07:48:00Z,28.1560,-82.7580,0.03,1111122 
COMPS,ioos:station:USF.COMPS:TAR:1,2013-08-17T07:54:00Z,28.1560,-82.7580,0.031,1111122 
COMPS,ioos:station:USF.COMPS:TAR:1,2013-08-17T08:00:00Z,28.1560,-82.7580,0.031,1111122 
COMPS,ioos:station:USF.COMPS:TAR:1,2013-08-17T08:06:00Z,28.1560,-82.7580,0.031,1111122 
COMPS,ioos:station:USF.COMPS:TAR:1,2013-08-17T08:12:00Z,28.1560,-82.7580,0.031,1111122 
COMPS,ioos:station:USF.COMPS:TAR:1,2013-08-17T08:18:00Z,28.1560,-82.7580,0.03,1111122 
COMPS,ioos:station:USF.COMPS:TAR:1,2013-08-17T08:24:00Z,28.1560,-82.7580,0.031,1111122 
COMPS,ioos:station:USF.COMPS:TAR:1,2013-08-17T08:30:00Z,28.1560,-82.7580,0.031,1111122 
COMPS,ioos:station:USF.COMPS:TAR:1,2013-08-17T08:36:00Z,28.1560,-82.7580,0.031,1111122 
COMPS,ioos:station:USF.COMPS:TAR:1,2013-08-17T08:42:00Z,28.1560,-82.7580,0.031,1111122 
COMPS,ioos:station:USF.COMPS:TAR:1,2013-08-17T08:48:00Z,28.1560,-82.7580,0.031,1111122 
COMPS,ioos:station:USF.COMPS:TAR:1,2013-08-17T08:54:00Z,28.1560,-82.7580,0.031,1111122 
COMPS,ioos:station:USF.COMPS:TAR:1,2013-08-17T09:00:00Z,28.1560,-82.7580,0.031,1111122 
COMPS,ioos:station:USF.COMPS:TAR:1,2013-08-17T09:06:00Z,28.1560,-82.7580,0.031,1111122 
COMPS,ioos:station:USF.COMPS:TAR:1,2013-08-17T09:12:00Z,28.1560,-82.7580,0.031,1111122 
COMPS,ioos:station:USF.COMPS:TAR:1,2013-08-17T09:18:00Z,28.1560,-82.7580,0.031,1111122 
COMPS,ioos:station:USF.COMPS:TAR:1,2013-08-17T09:24:00Z,28.1560,-82.7580,0.031,1111122 
COMPS,ioos:station:USF.COMPS:TAR:1,2013-08-17T09:30:00Z,28.1560,-82.7580,0.031,1111122 
COMPS,ioos:station:USF.COMPS:TAR:1,2013-08-17T09:36:00Z,28.1560,-82.7580,0.032,1111122 
COMPS,ioos:station:USF.COMPS:TAR:1,2013-08-17T09:42:00Z,28.1560,-82.7580,0.032,1111122 
COMPS,ioos:station:USF.COMPS:TAR:1,2013-08-17T09:48:00Z,28.1560,-82.7580,0.032,1111122 
COMPS,ioos:station:USF.COMPS:TAR:1,2013-08-17T09:54:00Z,28.1560,-82.7580,0.033,1111122 
COMPS,ioos:station:USF.COMPS:TAR:1,2013-08-17T10:00:00Z,28.1560,-82.7580,0.034,1111122 
COMPS,ioos:station:USF.COMPS:TAR:1,2013-08-17T10:06:00Z,28.1560,-82.7580,0.034,1111122 
COMPS,ioos:station:USF.COMPS:TAR:1,2013-08-17T10:12:00Z,28.1560,-82.7580,0.035,1111122 
COMPS,ioos:station:USF.COMPS:TAR:1,2013-08-17T10:18:00Z,28.1560,-82.7580,0.035,1111122 
COMPS,ioos:station:USF.COMPS:TAR:1,2013-08-17T10:24:00Z,28.1560,-82.7580,0.035,1111122 
COMPS,ioos:station:USF.COMPS:TAR:1,2013-08-17T10:30:00Z,28.1560,-82.7580,0.035,1111122 
COMPS,ioos:station:USF.COMPS:TAR:1,2013-08-17T10:36:00Z,28.1560,-82.7580,0.036,1111122 
COMPS,ioos:station:USF.COMPS:TAR:1,2013-08-17T10:42:00Z,28.1560,-82.7580,0.037,1111122 
COMPS,ioos:station:USF.COMPS:TAR:1,2013-08-17T10:48:00Z,28.1560,-82.7580,0.038,1111122 
COMPS,ioos:station:USF.COMPS:TAR:1,2013-08-17T10:54:00Z,28.1560,-82.7580,0.038,1111122 
COMPS,ioos:station:USF.COMPS:TAR:1,2013-08-17T11:00:00Z,28.1560,-82.7580,0.039,1111122 
COMPS,ioos:station:USF.COMPS:TAR:1,2013-08-17T11:06:00Z,28.1560,-82.7580,0.04,1111122 
COMPS,ioos:station:USF.COMPS:TAR:1,2013-08-17T11:12:00Z,28.1560,-82.7580,0.04,1111122 
COMPS,ioos:station:USF.COMPS:TAR:1,2013-08-17T11:18:00Z,28.1560,-82.7580,0.041,1111122 
COMPS,ioos:station:USF.COMPS:TAR:1,2013-08-17T11:24:00Z,28.1560,-82.7580,0.042,1111122 
COMPS,ioos:station:USF.COMPS:TAR:1,2013-08-17T11:30:00Z,28.1560,-82.7580,0.043,1111122 
COMPS,ioos:station:USF.COMPS:TAR:1,2013-08-17T11:36:00Z,28.1560,-82.7580,0.044,1111122 
COMPS,ioos:station:USF.COMPS:TAR:1,2013-08-17T11:42:00Z,28.1560,-82.7580,0.044,1111122 
COMPS,ioos:station:USF.COMPS:TAR:1,2013-08-17T11:48:00Z,28.1560,-82.7580,0.045,1111122 
COMPS,ioos:station:USF.COMPS:TAR:1,2013-08-17T11:54:00Z,28.1560,-82.7580,0.046,1111122 
COMPS,ioos:station:USF.COMPS:TAR:1,2013-08-17T12:00:00Z,28.1560,-82.7580,0.048,1111122 
COMPS,ioos:station:USF.COMPS:TAR:1,2013-08-17T12:06:00Z,28.1560,-82.7580,0.049,1111122 
COMPS,ioos:station:USF.COMPS:TAR:1,2013-08-17T12:12:00Z,28.1560,-82.7580,0.05,1111122 
COMPS,ioos:station:USF.COMPS:TAR:1,2013-08-17T12:18:00Z,28.1560,-82.7580,0.051,1111122 
COMPS,ioos:station:USF.COMPS:TAR:1,2013-08-17T12:24:00Z,28.1560,-82.7580,0.052,1111122 
COMPS,ioos:station:USF.COMPS:TAR:1,2013-08-17T12:30:00Z,28.1560,-82.7580,0.053,1111122 
COMPS,ioos:station:USF.COMPS:TAR:1,2013-08-17T12:36:00Z,28.1560,-82.7580,0.054,1111122 
COMPS,ioos:station:USF.COMPS:TAR:1,2013-08-17T12:42:00Z,28.1560,-82.7580,0.055,1111122 
COMPS,ioos:station:USF.COMPS:TAR:1,2013-08-17T12:48:00Z,28.1560,-82.7580,0.056,1111122 
COMPS,ioos:station:USF.COMPS:TAR:1,2013-08-17T12:54:00Z,28.1560,-82.7580,0.057,1111122 
COMPS,ioos:station:USF.COMPS:TAR:1,2013-08-17T13:00:00Z,28.1560,-82.7580,0.058,1111122 
COMPS,ioos:station:USF.COMPS:TAR:1,2013-08-17T13:06:00Z,28.1560,-82.7580,0.059,1111122 
COMPS,ioos:station:USF.COMPS:TAR:1,2013-08-17T13:12:00Z,28.1560,-82.7580,0.06,1111122 
COMPS,ioos:station:USF.COMPS:TAR:1,2013-08-17T13:18:00Z,28.1560,-82.7580,0.061,1111122 
COMPS,ioos:station:USF.COMPS:TAR:1,2013-08-17T13:24:00Z,28.1560,-82.7580,0.062,1111122 
COMPS,ioos:station:USF.COMPS:TAR:1,2013-08-17T13:30:00Z,28.1560,-82.7580,0.063,1111122 
COMPS,ioos:station:USF.COMPS:TAR:1,2013-08-17T13:36:00Z,28.1560,-82.7580,0.065,1111122 
COMPS,ioos:station:USF.COMPS:TAR:1,2013-08-17T13:42:00Z,28.1560,-82.7580,0.066,1111122 
COMPS,ioos:station:USF.COMPS:TAR:1,2013-08-17T13:48:00Z,28.1560,-82.7580,0.068,1111122 
COMPS,ioos:station:USF.COMPS:TAR:1,2013-08-17T13:54:00Z,28.1560,-82.7580,0.068,1111122 
COMPS,ioos:station:USF.COMPS:TAR:1,2013-08-17T14:00:00Z,28.1560,-82.7580,0.067,1111122 
COMPS,ioos:station:USF.COMPS:TAR:1,2013-08-17T14:06:00Z,28.1560,-82.7580,0.068,1111122 
COMPS,ioos:station:USF.COMPS:TAR:1,2013-08-17T14:12:00Z,28.1560,-82.7580,0.068,1111122 
COMPS,ioos:station:USF.COMPS:TAR:1,2013-08-17T14:18:00Z,28.1560,-82.7580,0.068,1111122 
COMPS,ioos:station:USF.COMPS:TAR:1,2013-08-17T14:24:00Z,28.1560,-82.7580,0.07,1111122 
COMPS,ioos:station:USF.COMPS:TAR:1,2013-08-17T14:30:00Z,28.1560,-82.7580,0.071,1111122 
COMPS,ioos:station:USF.COMPS:TAR:1,2013-08-17T14:36:00Z,28.1560,-82.7580,0.072,1111122 
COMPS,ioos:station:USF.COMPS:TAR:1,2013-08-17T14:42:00Z,28.1560,-82.7580,0.074,1111122 
COMPS,ioos:station:USF.COMPS:TAR:1,2013-08-17T14:48:00Z,28.1560,-82.7580,0.074,1111122 
COMPS,ioos:station:USF.COMPS:TAR:1,2013-08-17T14:54:00Z,28.1560,-82.7580,0.074,1111122 
COMPS,ioos:station:USF.COMPS:TAR:1,2013-08-17T15:00:00Z,28.1560,-82.7580,0.074,1111122 
COMPS,ioos:station:USF.COMPS:TAR:1,2013-08-17T15:06:00Z,28.1560,-82.7580,0.075,1111122 
COMPS,ioos:station:USF.COMPS:TAR:1,2013-08-17T15:12:00Z,28.1560,-82.7580,0.076,1111122 
COMPS,ioos:station:USF.COMPS:TAR:1,2013-08-17T15:18:00Z,28.1560,-82.7580,0.076,1111122 
COMPS,ioos:station:USF.COMPS:TAR:1,2013-08-17T15:24:00Z,28.1560,-82.7580,0.076,1111122 
COMPS,ioos:station:USF.COMPS:TAR:1,2013-08-17T15:30:00Z,28.1560,-82.7580,0.078,1111122 
COMPS,ioos:station:USF.COMPS:TAR:1,2013-08-17T15:36:00Z,28.1560,-82.7580,0.079,1111122 
COMPS,ioos:station:USF.COMPS:TAR:1,2013-08-17T15:42:00Z,28.1560,-82.7580,0.081,1111122 
COMPS,ioos:station:USF.COMPS:TAR:1,2013-08-17T15:48:00Z,28.1560,-82.7580,0.082,1111122 
COMPS,ioos:station:USF.COMPS:TAR:1,2013-08-17T15:54:00Z,28.1560,-82.7580,0.084,1111122 
COMPS,ioos:station:USF.COMPS:TAR:1,2013-08-17T16:00:00Z,28.1560,-82.7580,0.085,1111122 
COMPS,ioos:station:USF.COMPS:TAR:1,2013-08-17T16:06:00Z,28.1560,-82.7580,0.086,1111122 
COMPS,ioos:station:USF.COMPS:TAR:1,2013-08-17T16:12:00Z,28.1560,-82.7580,0.087,1111122 
COMPS,ioos:station:USF.COMPS:TAR:1,2013-08-17T16:18:00Z,28.1560,-82.7580,0.087,1111122 
COMPS,ioos:station:USF.COMPS:TAR:1,2013-08-17T16:24:00Z,28.1560,-82.7580,0.089,1111122 
COMPS,ioos:station:USF.COMPS:TAR:1,2013-08-17T16:30:00Z,28.1560,-82.7580,0.089,1111122 
COMPS,ioos:station:USF.COMPS:TAR:1,2013-08-17T16:36:00Z,28.1560,-82.7580,0.089,1111122 
COMPS,ioos:station:USF.COMPS:TAR:1,2013-08-17T16:42:00Z,28.1560,-82.7580,0.087,1111122 
COMPS,ioos:station:USF.COMPS:TAR:1,2013-08-17T16:48:00Z,28.1560,-82.7580,0.087,1111122 
COMPS,ioos:station:USF.COMPS:TAR:1,2013-08-17T16:54:00Z,28.1560,-82.7580,0.088,1111122 
COMPS,ioos:station:USF.COMPS:TAR:1,2013-08-17T17:00:00Z,28.1560,-82.7580,0.088,1111122 
COMPS,ioos:station:USF.COMPS:TAR:1,2013-08-17T17:06:00Z,28.1560,-82.7580,0.087,1111122 
COMPS,ioos:station:USF.COMPS:TAR:1,2013-08-17T17:12:00Z,28.1560,-82.7580,0.087,1111122 
COMPS,ioos:station:USF.COMPS:TAR:1,2013-08-17T17:18:00Z,28.1560,-82.7580,0.088,1111122 
COMPS,ioos:station:USF.COMPS:TAR:1,2013-08-17T17:24:00Z,28.1560,-82.7580,0.087,1111122 
COMPS,ioos:station:USF.COMPS:TAR:1,2013-08-17T17:30:00Z,28.1560,-82.7580,0.086,1111122 
COMPS,ioos:station:USF.COMPS:TAR:1,2013-08-17T17:36:00Z,28.1560,-82.7580,0.086,1111122 
COMPS,ioos:station:USF.COMPS:TAR:1,2013-08-17T17:42:00Z,28.1560,-82.7580,0.086,1111122 
COMPS,ioos:station:USF.COMPS:TAR:1,2013-08-17T17:48:00Z,28.1560,-82.7580,0.085,1111122 
COMPS,ioos:station:USF.COMPS:TAR:1,2013-08-17T17:54:00Z,28.1560,-82.7580,0.084,1111122 
COMPS,ioos:station:USF.COMPS:TAR:1,2013-08-17T18:00:00Z,28.1560,-82.7580,0.084,1111122 
COMPS,ioos:station:USF.COMPS:TAR:1,2013-08-17T18:06:00Z,28.1560,-82.7580,0.083,1111122 
COMPS,ioos:station:USF.COMPS:TAR:1,2013-08-17T18:12:00Z,28.1560,-82.7580,0.082,1111122 
COMPS,ioos:station:USF.COMPS:TAR:1,2013-08-17T18:18:00Z,28.1560,-82.7580,0.081,1111122 
COMPS,ioos:station:USF.COMPS:TAR:1,2013-08-17T18:24:00Z,28.1560,-82.7580,0.08,1111122 
COMPS,ioos:station:USF.COMPS:TAR:1,2013-08-17T18:30:00Z,28.1560,-82.7580,0.081,1111122 
COMPS,ioos:station:USF.COMPS:TAR:1,2013-08-17T18:36:00Z,28.1560,-82.7580,0.081,1111122 
COMPS,ioos:station:USF.COMPS:TAR:1,2013-08-17T18:42:00Z,28.1560,-82.7580,0.08,1111122 
COMPS,ioos:station:USF.COMPS:TAR:1,2013-08-17T18:48:00Z,28.1560,-82.7580,0.079,1111122 
COMPS,ioos:station:USF.COMPS:TAR:1,2013-08-17T18:54:00Z,28.1560,-82.7580,0.08,1111122 
COMPS,ioos:station:USF.COMPS:TAR:1,2013-08-17T19:00:00Z,28.1560,-82.7580,0.08,1111122 
COMPS,ioos:station:USF.COMPS:TAR:1,2013-08-17T19:06:00Z,28.1560,-82.7580,0.078,1111122 